Time,TemperatureF,DewpointF,PressureIn,WindDirection,WindDirectionDegrees,WindSpeedMPH,WindSpeedGustMPH,Humidity,HourlyPrecipIn,Conditions,Clouds,dailyrainin,SolarRadiationWatts/m^2,SoftwareType,DateUTC
2013-03-11 00:00:00,44.8,40.6,30.14,SE,140,0.0,1.0,85,0.00,,OVC,0.00,0.00,VWS V14.00,2013-03-11 04:00:00,
2013-03-11 00:01:00,44.8,40.6,30.14,South,173,2.0,2.0,85,0.00,,OVC,0.00,0.00,VWS V14.00,2013-03-11 04:01:00,
2013-03-11 00:06:00,44.7,40.8,30.14,SSE,152,0.0,4.0,86,0.00,,OVC,0.00,0.00,VWS V14.00,2013-03-11 04:06:00,
2013-03-11 00:11:00,44.6,40.7,30.14,SSE,157,0.0,4.0,86,0.00,,OVC,0.00,0.00,VWS V14.00,2013-03-11 04:11:00,
2013-03-11 00:15:00,44.6,40.7,30.14,SE,135,0.0,4.0,86,0.00,,OVC,0.00,0.00,VWS V14.00,2013-03-11 04:15:00,
2013-03-11 00:16:00,44.5,40.6,30.14,SSW,206,0.0,1.0,86,0.00,,OVC,0.00,0.00,VWS V14.00,2013-03-11 04:16:00,
2013-03-11 00:21:00,44.4,40.5,30.15,WSW,250,4.0,4.0,86,0.00,,OVC,0.00,0.00,VWS V14.00,2013-03-11 04:21:00,
2013-03-11 00:27:00,44.4,40.8,30.15,SSW,205,0.0,6.0,87,0.00,,OVC,0.00,0.00,VWS V14.00,2013-03-11 04:27:00,
2013-03-11 00:30:00,44.4,40.8,30.15,East,97,0.0,6.0,87,0.00,,OVC,0.00,0.00,VWS V14.00,2013-03-11 04:30:00,
2013-03-11 00:32:00,44.4,40.8,30.15,SSE,168,0.0,5.0,87,0.00,,OVC,0.00,0.00,VWS V14.00,2013-03-11 04:32:00,
2013-03-11 00:37:00,44.3,40.7,30.15,SW,218,0.0,5.0,87,0.00,,OVC,0.00,0.00,VWS V14.00,2013-03-11 04:37:00,
2013-03-11 00:42:00,44.3,41.0,30.15,East,86,0.0,6.0,88,0.00,,OVC,0.00,0.00,VWS V14.00,2013-03-11 04:42:00,
2013-03-11 00:45:00,44.3,41.0,30.15,SSE,151,4.0,6.0,88,0.00,,OVC,0.00,0.00,VWS V14.00,2013-03-11 04:45:00,
2013-03-11 00:47:00,44.3,41.0,30.15,WSW,240,0.0,6.0,88,0.00,,OVC,0.00,0.00,VWS V14.00,2013-03-11 04:47:00,
2013-03-11 00:52:00,44.3,41.0,30.15,SW,229,0.0,6.0,88,0.00,,OVC,0.00,0.00,VWS V14.00,2013-03-11 04:52:00,
2013-03-11 00:57:00,44.3,41.0,30.14,SSE,150,0.0,6.0,88,0.00,,OVC,0.00,0.00,VWS V14.00,2013-03-11 04:57:00,
2013-03-11 01:00:00,44.3,41.0,30.14,SSE,150,0.0,6.0,88,0.00,,OVC,0.00,0.00,VWS V14.00,2013-03-11 05:00:00,
2013-03-11 01:02:00,44.3,41.3,30.14,SSW,206,0.0,5.0,89,0.00,,OVC,0.00,0.00,VWS V14.00,2013-03-11 05:02:00,
2013-03-11 01:07:00,44.3,41.3,30.14,SSE,158,0.0,7.0,89,0.00,,OVC,0.00,0.00,VWS V14.00,2013-03-11 05:07:00,
2013-03-11 01:12:00,44.3,41.3,30.14,SE,139,5.0,7.0,89,0.00,,OVC,0.00,0.00,VWS V14.00,2013-03-11 05:12:00,
2013-03-11 01:15:00,44.3,41.3,30.14,SSE,168,1.0,7.0,89,0.00,,OVC,0.00,0.00,VWS V14.00,2013-03-11 05:15:00,
2013-03-11 01:17:00,44.3,41.3,30.13,SW,223,1.0,4.0,89,0.00,,OVC,0.00,0.00,VWS V14.00,2013-03-11 05:17:00,
2013-03-11 01:22:00,44.2,41.2,30.14,South,177,0.0,4.0,89,0.00,,OVC,0.00,0.00,VWS V14.00,2013-03-11 05:22:00,
2013-03-11 01:27:00,44.2,41.2,30.13,ESE,115,4.0,7.0,89,0.00,,OVC,0.00,0.00,VWS V14.00,2013-03-11 05:27:00,
2013-03-11 01:30:00,44.2,41.2,30.13,ESE,117,0.0,7.0,89,0.00,,OVC,0.00,0.00,VWS V14.00,2013-03-11 05:30:00,
2013-03-11 01:32:00,44.2,41.2,30.13,SSE,161,0.0,7.0,89,0.00,,OVC,0.00,0.00,VWS V14.00,2013-03-11 05:32:00,
2013-03-11 01:37:00,44.2,41.2,30.13,SSW,200,0.0,7.0,89,0.00,,OVC,0.00,0.00,VWS V14.00,2013-03-11 05:37:00,
2013-03-11 01:42:00,44.2,41.2,30.13,ESE,121,1.0,8.0,89,0.00,,OVC,0.00,0.00,VWS V14.00,2013-03-11 05:42:00,
2013-03-11 01:45:00,44.1,41.1,30.13,East,90,1.0,8.0,89,0.00,,OVC,0.00,0.00,VWS V14.00,2013-03-11 05:45:00,
2013-03-11 01:47:00,44.1,41.1,30.13,West,265,1.0,5.0,89,0.00,,OVC,0.00,0.00,VWS V14.00,2013-03-11 05:47:00,
2013-03-11 01:52:00,44.1,41.1,30.13,South,185,4.0,9.0,89,0.00,,OVC,0.00,0.00,VWS V14.00,2013-03-11 05:52:00,
2013-03-11 01:57:00,44.0,41.3,30.13,SSW,198,0.0,9.0,90,0.00,,OVC,0.00,0.00,VWS V14.00,2013-03-11 05:57:00,
2013-03-11 02:00:00,44.0,41.3,30.13,SSE,163,0.0,9.0,90,0.00,,OVC,0.00,0.00,VWS V14.00,2013-03-11 06:00:00,
2013-03-11 02:02:00,44.0,41.0,30.13,ESE,113,0.0,4.0,89,0.00,,OVC,0.00,0.00,VWS V14.00,2013-03-11 06:02:00,
2013-03-11 02:07:00,44.0,41.3,30.13,SSE,155,0.0,8.0,90,0.00,,OVC,0.00,0.00,VWS V14.00,2013-03-11 06:07:00,
2013-03-11 02:13:00,43.9,41.2,30.13,SSE,165,0.0,8.0,90,0.00,,OVC,0.00,0.00,VWS V14.00,2013-03-11 06:13:00,
2013-03-11 02:15:00,43.9,41.2,30.13,SW,222,4.0,8.0,90,0.00,,OVC,0.00,0.00,VWS V14.00,2013-03-11 06:15:00,
2013-03-11 02:18:00,43.9,41.2,30.13,SSW,209,0.0,5.0,90,0.00,,OVC,0.00,0.00,VWS V14.00,2013-03-11 06:18:00,
2013-03-11 02:23:00,43.8,41.1,30.13,South,187,5.0,5.0,90,0.00,,OVC,0.00,0.00,VWS V14.00,2013-03-11 06:23:00,
2013-03-11 02:28:00,43.8,41.1,30.13,SSE,167,0.0,1.0,90,0.00,,OVC,0.00,0.00,VWS V14.00,2013-03-11 06:28:00,
2013-03-11 02:33:00,43.8,41.1,30.13,SW,227,3.0,3.0,90,0.00,,OVC,0.00,0.00,VWS V14.00,2013-03-11 06:33:00,
2013-03-11 02:38:00,43.8,41.1,30.13,SSW,206,1.0,7.0,90,0.00,,OVC,0.00,0.00,VWS V14.00,2013-03-11 06:38:00,
2013-03-11 02:43:00,43.8,41.1,30.13,South,175,0.0,1.0,90,0.00,,OVC,0.00,0.00,VWS V14.00,2013-03-11 06:43:00,
2013-03-11 02:48:00,43.8,41.1,30.13,SSE,153,4.0,5.0,90,0.00,,OVC,0.00,0.00,VWS V14.00,2013-03-11 06:48:00,
2013-03-11 02:53:00,43.8,41.1,30.13,SW,230,0.0,5.0,90,0.00,,OVC,0.00,0.00,VWS V14.00,2013-03-11 06:53:00,
2013-03-11 02:59:00,43.8,41.1,30.13,South,182,1.0,4.0,90,0.00,,OVC,0.00,0.00,VWS V14.00,2013-03-11 06:59:00,
2013-03-11 03:04:00,43.8,41.1,30.13,South,180,0.0,4.0,90,0.00,,OVC,0.00,0.00,VWS V14.00,2013-03-11 07:04:00,
2013-03-11 03:09:00,43.8,41.1,30.12,East,95,1.0,4.0,90,0.00,,OVC,0.00,0.00,VWS V14.00,2013-03-11 07:09:00,
2013-03-11 03:14:00,43.8,41.1,30.12,SSW,207,0.0,2.0,90,0.00,,OVC,0.00,0.00,VWS V14.00,2013-03-11 07:14:00,
2013-03-11 03:19:00,43.8,41.3,30.12,SSW,207,0.0,2.0,91,0.00,,OVC,0.00,0.00,VWS V14.00,2013-03-11 07:19:00,
2013-03-11 03:24:00,43.8,41.3,30.11,SSW,209,0.0,2.0,91,0.00,,OVC,0.00,0.00,VWS V14.00,2013-03-11 07:24:00,
2013-03-11 03:29:00,43.8,41.3,30.11,West,273,0.0,0.0,91,0.00,,OVC,0.00,0.00,VWS V14.00,2013-03-11 07:29:00,
2013-03-11 03:34:00,43.8,41.3,30.11,East,84,1.0,2.0,91,0.00,,OVC,0.00,0.00,VWS V14.00,2013-03-11 07:34:00,
2013-03-11 03:39:00,43.8,41.3,30.10,SE,139,1.0,4.0,91,0.00,,OVC,0.00,0.00,VWS V14.00,2013-03-11 07:39:00,
2013-03-11 03:44:00,43.7,41.0,30.10,SSE,163,0.0,0.0,90,0.00,,OVC,0.00,0.00,VWS V14.00,2013-03-11 07:44:00,
2013-03-11 03:49:00,43.7,41.0,30.10,South,180,1.0,5.0,90,0.00,,OVC,0.00,0.00,VWS V14.00,2013-03-11 07:49:00,
2013-03-11 03:54:00,43.6,41.2,30.10,SE,146,0.0,5.0,91,0.00,,OVC,0.00,0.00,VWS V14.00,2013-03-11 07:54:00,
2013-03-11 03:59:00,43.6,41.2,30.10,SSW,200,3.0,3.0,91,0.00,,OVC,0.00,0.00,VWS V14.00,2013-03-11 07:59:00,
2013-03-11 04:04:00,43.6,41.2,30.10,SE,138,1.0,5.0,91,0.00,,OVC,0.00,0.00,VWS V14.00,2013-03-11 08:04:00,
2013-03-11 04:09:00,43.6,41.2,30.10,SSE,148,0.0,5.0,91,0.00,,OVC,0.00,0.00,VWS V14.00,2013-03-11 08:09:00,
2013-03-11 04:14:00,43.6,41.2,30.10,SW,215,1.0,1.0,91,0.00,,OVC,0.00,0.00,VWS V14.00,2013-03-11 08:14:00,
2013-03-11 04:19:00,43.6,41.2,30.09,East,84,0.0,2.0,91,0.00,,OVC,0.00,0.00,VWS V14.00,2013-03-11 08:19:00,
2013-03-11 04:24:00,43.6,41.2,30.10,SE,142,0.0,2.0,91,0.00,,OVC,0.00,0.00,VWS V14.00,2013-03-11 08:24:00,
2013-03-11 04:30:00,43.6,41.2,30.09,SSE,159,0.0,4.0,91,0.00,,OVC,0.00,0.00,VWS V14.00,2013-03-11 08:30:00,
2013-03-11 04:35:00,43.6,41.2,30.09,South,171,1.0,5.0,91,0.00,,OVC,0.00,0.00,VWS V14.00,2013-03-11 08:35:00,
2013-03-11 04:40:00,43.6,41.2,30.09,ESE,122,4.0,5.0,91,0.00,,OVC,0.00,0.00,VWS V14.00,2013-03-11 08:40:00,
2013-03-11 04:45:00,43.6,41.2,30.09,SSE,161,0.0,3.0,91,0.00,,OVC,0.00,0.00,VWS V14.00,2013-03-11 08:45:00,
2013-03-11 04:50:00,43.6,41.2,30.09,SE,136,2.0,3.0,91,0.00,,OVC,0.00,0.00,VWS V14.00,2013-03-11 08:50:00,
2013-03-11 04:55:00,43.6,41.2,30.09,SSW,213,0.0,3.0,91,0.00,,OVC,0.00,0.00,VWS V14.00,2013-03-11 08:55:00,
2013-03-11 05:00:00,43.5,41.0,30.09,SSW,213,0.0,0.0,91,0.00,,OVC,0.00,0.00,VWS V14.00,2013-03-11 09:00:00,
2013-03-11 05:05:00,43.6,41.2,30.09,SSW,213,0.0,3.0,91,0.00,,OVC,0.00,0.00,VWS V14.00,2013-03-11 09:05:00,
2013-03-11 05:10:00,43.6,41.4,30.09,WSW,253,1.0,3.0,92,0.00,,OVC,0.00,0.00,VWS V14.00,2013-03-11 09:10:00,
2013-03-11 05:15:00,43.6,41.4,30.09,SE,130,0.0,0.0,92,0.00,,OVC,0.00,0.00,VWS V14.00,2013-03-11 09:15:00,
2013-03-11 05:20:00,43.6,41.4,30.09,ESE,123,0.0,2.0,92,0.00,,OVC,0.00,0.00,VWS V14.00,2013-03-11 09:20:00,
2013-03-11 05:25:00,43.6,41.4,30.09,SE,144,0.0,2.0,92,0.00,,OVC,0.00,0.00,VWS V14.00,2013-03-11 09:25:00,
2013-03-11 05:30:00,43.6,41.4,30.09,SE,145,0.0,0.0,92,0.00,,OVC,0.00,0.00,VWS V14.00,2013-03-11 09:30:00,
2013-03-11 05:35:00,43.6,41.2,30.08,SE,144,0.0,0.0,91,0.00,,OVC,0.00,0.00,VWS V14.00,2013-03-11 09:35:00,
2013-03-11 05:40:00,43.6,41.2,30.08,SSE,159,0.0,0.0,91,0.00,,OVC,0.00,0.00,VWS V14.00,2013-03-11 09:40:00,
2013-03-11 05:45:00,43.6,41.2,30.08,SSE,159,0.0,1.0,91,0.00,,OVC,0.00,0.00,VWS V14.00,2013-03-11 09:45:00,
2013-03-11 05:50:00,43.6,41.2,30.08,SSE,159,0.0,1.0,91,0.00,,OVC,0.00,0.00,VWS V14.00,2013-03-11 09:50:00,
2013-03-11 05:56:00,43.7,41.2,30.08,ESE,114,0.0,1.0,91,0.00,,OVC,0.00,0.00,VWS V14.00,2013-03-11 09:56:00,
2013-03-11 06:01:00,43.7,41.2,30.08,SE,146,2.0,2.0,91,0.00,,OVC,0.00,0.00,VWS V14.00,2013-03-11 10:01:00,
2013-03-11 06:06:00,43.7,41.2,30.08,SE,132,0.0,2.0,91,0.00,,OVC,0.00,0.00,VWS V14.00,2013-03-11 10:06:00,
2013-03-11 06:11:00,43.7,41.2,30.08,East,99,0.0,2.0,91,0.00,,OVC,0.00,0.00,VWS V14.00,2013-03-11 10:11:00,
2013-03-11 06:16:00,43.7,41.2,30.08,ESE,103,0.0,1.0,91,0.00,,OVC,0.00,0.00,VWS V14.00,2013-03-11 10:16:00,
2013-03-11 06:21:00,43.7,41.2,30.08,SSE,167,0.0,2.0,91,0.00,,OVC,0.00,0.00,VWS V14.00,2013-03-11 10:21:00,
2013-03-11 06:26:00,43.8,41.3,30.08,SSE,167,0.0,2.0,91,0.00,,OVC,0.00,0.00,VWS V14.00,2013-03-11 10:26:00,
2013-03-11 06:31:00,43.8,41.3,30.08,SSE,167,0.0,1.0,91,0.00,,OVC,0.00,0.00,VWS V14.00,2013-03-11 10:31:00,
2013-03-11 06:36:00,43.8,41.3,30.08,South,169,0.0,1.0,91,0.00,,OVC,0.00,0.00,VWS V14.00,2013-03-11 10:36:00,
2013-03-11 06:42:00,43.9,41.5,30.08,SSW,209,1.0,5.0,91,0.00,,OVC,0.00,0.00,VWS V14.00,2013-03-11 10:42:00,
2013-03-11 06:47:00,43.9,41.5,30.08,SW,218,1.0,3.0,91,0.00,,OVC,0.00,0.00,VWS V14.00,2013-03-11 10:47:00,
2013-03-11 06:52:00,43.9,41.5,30.08,SSW,205,0.0,4.0,91,0.00,,OVC,0.00,0.00,VWS V14.00,2013-03-11 10:52:00,
2013-03-11 06:57:00,43.9,41.5,30.08,SE,138,0.0,4.0,91,0.00,,OVC,0.00,0.00,VWS V14.00,2013-03-11 10:57:00,
2013-03-11 07:02:00,43.9,41.5,30.08,South,184,3.0,7.0,91,0.00,,OVC,0.00,0.00,VWS V14.00,2013-03-11 11:02:00,
2013-03-11 07:07:00,43.9,41.5,30.09,SSE,164,4.0,7.0,91,0.00,,OVC,0.00,0.00,VWS V14.00,2013-03-11 11:07:00,
2013-03-11 07:12:00,43.9,41.5,30.09,South,188,0.0,7.0,91,0.00,,OVC,0.00,0.00,VWS V14.00,2013-03-11 11:12:00,
2013-03-11 07:17:00,43.9,41.5,30.09,South,188,0.0,1.0,91,0.00,,OVC,0.00,0.00,VWS V14.00,2013-03-11 11:17:00,
2013-03-11 07:22:00,43.9,41.5,30.09,SE,136,0.0,2.0,91,0.00,,OVC,0.00,0.00,VWS V14.00,2013-03-11 11:22:00,
2013-03-11 07:27:00,44.0,41.5,30.09,ESE,123,1.0,5.0,91,0.00,,OVC,0.00,0.00,VWS V14.00,2013-03-11 11:27:00,
2013-03-11 07:32:00,44.0,41.5,30.09,South,182,0.0,2.0,91,0.00,,OVC,0.00,5.00,VWS V14.00,2013-03-11 11:32:00,
2013-03-11 07:37:00,44.0,41.5,30.09,SSW,202,0.0,3.0,91,0.00,,OVC,0.00,11.00,VWS V14.00,2013-03-11 11:37:00,
2013-03-11 07:42:00,44.0,41.5,30.09,SSW,209,0.0,3.0,91,0.00,,OVC,0.00,12.00,VWS V14.00,2013-03-11 11:42:00,
2013-03-11 07:47:00,44.1,41.7,30.08,ESE,117,0.0,1.0,91,0.00,,OVC,0.00,16.00,VWS V14.00,2013-03-11 11:47:00,
2013-03-11 07:52:00,44.1,41.7,30.08,ESE,115,0.0,1.0,91,0.00,,OVC,0.00,16.00,VWS V14.00,2013-03-11 11:52:00,
2013-03-11 07:57:00,44.1,41.7,30.08,ESE,115,0.0,1.0,91,0.00,,OVC,0.00,16.00,VWS V14.00,2013-03-11 11:57:00,
2013-03-11 08:03:00,44.1,41.7,30.08,ESE,115,0.0,0.0,91,0.00,,OVC,0.00,19.00,VWS V14.00,2013-03-11 12:03:00,
2013-03-11 08:08:00,44.2,41.7,30.07,ESE,117,1.0,2.0,91,0.00,,OVC,0.00,30.00,VWS V14.00,2013-03-11 12:08:00,
2013-03-11 08:13:00,44.2,41.7,30.07,East,96,0.0,2.0,91,0.00,,OVC,0.00,26.00,VWS V14.00,2013-03-11 12:13:00,
2013-03-11 08:18:00,44.2,41.7,30.07,ESE,103,0.0,4.0,91,0.00,,OVC,0.00,32.00,VWS V14.00,2013-03-11 12:18:00,
2013-03-11 08:23:00,44.2,41.7,30.07,SSE,155,0.0,5.0,91,0.00,,OVC,0.00,33.00,VWS V14.00,2013-03-11 12:23:00,
2013-03-11 08:28:00,44.3,41.8,30.07,SSW,210,2.0,3.0,91,0.00,,OVC,0.00,54.00,VWS V14.00,2013-03-11 12:28:00,
2013-03-11 08:33:00,44.4,41.9,30.08,East,98,0.0,3.0,91,0.00,,OVC,0.00,86.00,VWS V14.00,2013-03-11 12:33:00,
2013-03-11 08:38:00,44.5,42.0,30.08,SSE,160,2.0,3.0,91,0.00,,OVC,0.00,88.00,VWS V14.00,2013-03-11 12:38:00,
2013-03-11 08:43:00,44.6,42.1,30.07,SSW,209,0.0,0.0,91,0.00,,OVC,0.00,74.00,VWS V14.00,2013-03-11 12:43:00,
2013-03-11 08:48:00,44.8,42.3,30.08,ESE,113,0.0,2.0,91,0.00,,OVC,0.00,83.00,VWS V14.00,2013-03-11 12:48:00,
2013-03-11 08:53:00,45.0,42.2,30.08,South,184,0.0,4.0,90,0.00,,OVC,0.00,84.00,VWS V14.00,2013-03-11 12:53:00,
2013-03-11 08:58:00,45.1,42.3,30.09,South,186,0.0,0.0,90,0.00,,OVC,0.00,83.00,VWS V14.00,2013-03-11 12:58:00,
2013-03-11 09:03:00,45.2,42.5,30.09,South,191,2.0,2.0,90,0.00,,OVC,0.00,105.00,VWS V14.00,2013-03-11 13:03:00,
2013-03-11 09:08:00,45.4,42.6,30.09,SSW,212,2.0,5.0,90,0.00,,OVC,0.00,98.00,VWS V14.00,2013-03-11 13:08:00,
2013-03-11 09:14:00,45.5,42.5,30.09,SW,234,0.0,2.0,89,0.00,,OVC,0.00,132.00,VWS V14.00,2013-03-11 13:14:00,
2013-03-11 09:19:00,45.6,42.3,30.09,SSW,198,0.0,4.0,88,0.00,,OVC,0.00,135.00,VWS V14.00,2013-03-11 13:19:00,
2013-03-11 09:24:00,45.6,42.3,30.09,South,189,1.0,4.0,88,0.00,,OVC,0.00,214.00,VWS V14.00,2013-03-11 13:24:00,
2013-03-11 09:29:00,45.8,42.5,30.10,SSW,209,4.0,4.0,88,0.00,,OVC,0.00,213.00,VWS V14.00,2013-03-11 13:29:00,
2013-03-11 09:34:00,46.0,42.7,30.09,South,171,0.0,5.0,88,0.00,,OVC,0.00,202.00,VWS V14.00,2013-03-11 13:34:00,
2013-03-11 09:39:00,46.3,42.7,30.09,SSE,167,0.0,5.0,87,0.00,,OVC,0.00,211.00,VWS V14.00,2013-03-11 13:39:00,
2013-03-11 09:44:00,46.6,42.6,30.08,SSE,159,1.0,2.0,86,0.00,,OVC,0.00,225.00,VWS V14.00,2013-03-11 13:44:00,
2013-03-11 09:49:00,46.7,42.4,30.07,SE,133,0.0,7.0,85,0.00,,OVC,0.00,225.00,VWS V14.00,2013-03-11 13:49:00,
2013-03-11 09:54:00,46.8,42.5,30.07,East,82,0.0,7.0,85,0.00,,OVC,0.00,237.00,VWS V14.00,2013-03-11 13:54:00,
2013-03-11 09:59:00,47.0,42.4,30.08,SW,233,3.0,4.0,84,0.00,,OVC,0.00,225.00,VWS V14.00,2013-03-11 13:59:00,
2013-03-11 10:04:00,47.1,42.5,30.08,South,179,0.0,5.0,84,0.00,,OVC,0.00,220.00,VWS V14.00,2013-03-11 14:04:00,
2013-03-11 10:09:00,47.4,42.8,30.08,East,85,0.0,5.0,84,0.00,,OVC,0.00,221.00,VWS V14.00,2013-03-11 14:09:00,
2013-03-11 10:14:00,47.5,42.6,30.08,SSE,164,0.0,1.0,83,0.00,,OVC,0.00,237.00,VWS V14.00,2013-03-11 14:14:00,
2013-03-11 10:19:00,47.8,43.2,30.07,ENE,66,0.0,2.0,84,0.00,,OVC,0.00,258.00,VWS V14.00,2013-03-11 14:19:00,
2013-03-11 10:24:00,47.9,43.0,30.07,ENE,64,1.0,4.0,83,0.00,,OVC,0.00,281.00,VWS V14.00,2013-03-11 14:24:00,
2013-03-11 10:29:00,47.9,43.0,30.07,NE,43,0.0,2.0,83,0.00,,OVC,0.00,285.00,VWS V14.00,2013-03-11 14:29:00,
2013-03-11 10:34:00,47.8,43.2,30.07,ENE,57,0.0,2.0,84,0.00,,OVC,0.00,302.00,VWS V14.00,2013-03-11 14:34:00,
2013-03-11 10:39:00,47.9,43.3,30.06,East,90,0.0,4.0,84,0.00,,OVC,0.00,311.00,VWS V14.00,2013-03-11 14:39:00,
2013-03-11 10:44:00,47.9,43.0,30.06,ENE,64,0.0,4.0,83,0.00,,OVC,0.00,304.00,VWS V14.00,2013-03-11 14:44:00,
2013-03-11 10:49:00,48.0,43.1,30.05,ENE,76,2.0,5.0,83,0.00,,OVC,0.00,278.00,VWS V14.00,2013-03-11 14:49:00,
2013-03-11 10:55:00,48.0,43.4,30.05,ENE,71,1.0,5.0,84,0.00,,OVC,0.00,283.00,VWS V14.00,2013-03-11 14:55:00,
2013-03-11 11:00:00,48.0,43.4,30.05,ESE,102,4.0,4.0,84,0.00,,OVC,0.00,311.00,VWS V14.00,2013-03-11 15:00:00,
2013-03-11 11:05:00,48.1,43.5,30.05,East,84,0.0,6.0,84,0.00,,OVC,0.00,338.00,VWS V14.00,2013-03-11 15:05:00,
2013-03-11 11:10:00,48.2,43.6,30.05,East,95,4.0,7.0,84,0.00,,OVC,0.00,304.00,VWS V14.00,2013-03-11 15:10:00,
2013-03-11 11:15:00,48.2,43.6,30.05,East,92,2.0,6.0,84,0.00,,OVC,0.00,346.00,VWS V14.00,2013-03-11 15:15:00,
2013-03-11 11:20:00,48.2,43.6,30.05,East,94,2.0,6.0,84,0.00,,OVC,0.00,450.00,VWS V14.00,2013-03-11 15:20:00,
2013-03-11 11:25:00,48.5,43.9,30.05,ESE,103,0.0,6.0,84,0.00,,OVC,0.00,422.00,VWS V14.00,2013-03-11 15:25:00,
2013-03-11 11:30:00,48.5,43.9,30.05,East,98,5.0,5.0,84,0.00,,OVC,0.00,424.00,VWS V14.00,2013-03-11 15:30:00,
2013-03-11 11:35:00,48.6,44.0,30.06,NE,56,1.0,6.0,84,0.00,,OVC,0.00,501.00,VWS V14.00,2013-03-11 15:35:00,
2013-03-11 11:40:00,49.0,44.4,30.06,East,80,0.0,6.0,84,0.00,,OVC,0.00,485.00,VWS V14.00,2013-03-11 15:40:00,
2013-03-11 11:45:00,49.4,44.5,30.05,East,86,1.0,3.0,83,0.00,,OVC,0.00,522.00,VWS V14.00,2013-03-11 15:45:00,
2013-03-11 11:50:00,49.6,44.7,30.05,NE,53,0.0,4.0,83,0.00,,OVC,0.00,617.00,VWS V14.00,2013-03-11 15:50:00,
2013-03-11 11:55:00,49.8,44.8,30.05,ENE,78,0.0,4.0,83,0.00,,OVC,0.00,577.00,VWS V14.00,2013-03-11 15:55:00,
2013-03-11 12:00:00,50.1,44.8,30.05,ENE,78,2.0,4.0,82,0.00,,OVC,0.00,476.00,VWS V14.00,2013-03-11 16:00:00,
2013-03-11 12:05:00,50.2,44.9,30.05,NE,38,2.0,5.0,82,0.00,,OVC,0.00,603.00,VWS V14.00,2013-03-11 16:05:00,
2013-03-11 12:10:00,50.2,44.9,30.05,East,93,0.0,5.0,82,0.00,,OVC,0.00,489.00,VWS V14.00,2013-03-11 16:10:00,
2013-03-11 12:16:00,50.6,45.0,30.05,ENE,72,3.0,3.0,81,0.00,,OVC,0.00,380.00,VWS V14.00,2013-03-11 16:16:00,
2013-03-11 12:21:00,50.8,45.2,30.05,ESE,104,1.0,5.0,81,0.00,,OVC,0.00,520.00,VWS V14.00,2013-03-11 16:21:00,
2013-03-11 12:26:00,51.3,45.7,30.04,East,82,2.0,5.0,81,0.00,,OVC,0.00,508.00,VWS V14.00,2013-03-11 16:26:00,
2013-03-11 12:31:00,51.7,45.7,30.04,East,101,0.0,5.0,80,0.00,,OVC,0.00,513.00,VWS V14.00,2013-03-11 16:31:00,
2013-03-11 12:36:00,52.1,45.8,30.04,East,90,4.0,7.0,79,0.00,,OVC,0.00,478.00,VWS V14.00,2013-03-11 16:36:00,
2013-03-11 12:41:00,52.2,45.9,30.04,ESE,108,4.0,7.0,79,0.00,,OVC,0.00,587.00,VWS V14.00,2013-03-11 16:41:00,
2013-03-11 12:46:00,52.5,45.8,30.04,SSE,167,2.0,6.0,78,0.00,,OVC,0.00,628.00,VWS V14.00,2013-03-11 16:46:00,
2013-03-11 12:51:00,52.9,46.2,30.04,ESE,107,1.0,8.0,78,0.00,,OVC,0.00,547.00,VWS V14.00,2013-03-11 16:51:00,
2013-03-11 12:57:00,52.7,46.0,30.04,East,101,1.0,9.0,78,0.00,,OVC,0.00,555.00,VWS V14.00,2013-03-11 16:57:00,
2013-03-11 13:02:00,52.8,46.1,30.03,East,82,1.0,4.0,78,0.00,,OVC,0.00,457.00,VWS V14.00,2013-03-11 17:02:00,
2013-03-11 13:07:00,52.7,45.7,30.03,ESE,119,0.0,7.0,77,0.00,,OVC,0.00,424.00,VWS V14.00,2013-03-11 17:07:00,
2013-03-11 13:12:00,52.3,46.0,30.03,SE,140,2.0,7.0,79,0.00,,OVC,0.00,526.00,VWS V14.00,2013-03-11 17:12:00,
2013-03-11 13:17:00,52.2,45.9,30.02,East,97,0.0,6.0,79,0.00,,OVC,0.00,371.00,VWS V14.00,2013-03-11 17:17:00,
2013-03-11 13:22:00,52.2,45.9,30.02,ESE,119,5.0,7.0,79,0.00,,OVC,0.00,380.00,VWS V14.00,2013-03-11 17:22:00,
2013-03-11 13:27:00,52.0,45.7,30.02,East,101,2.0,7.0,79,0.00,,OVC,0.00,434.00,VWS V14.00,2013-03-11 17:27:00,
2013-03-11 13:32:00,52.2,46.2,30.02,ESE,111,1.0,6.0,80,0.00,,OVC,0.00,387.00,VWS V14.00,2013-03-11 17:32:00,
2013-03-11 13:37:00,52.4,46.1,30.02,ENE,70,1.0,6.0,79,0.00,,OVC,0.00,348.00,VWS V14.00,2013-03-11 17:37:00,
2013-03-11 13:42:00,52.5,46.2,30.01,East,92,2.0,7.0,79,0.00,,OVC,0.00,346.00,VWS V14.00,2013-03-11 17:42:00,
2013-03-11 13:47:00,52.6,46.3,30.01,SSE,167,0.0,5.0,79,0.00,,OVC,0.00,431.00,VWS V14.00,2013-03-11 17:47:00,
2013-03-11 13:52:00,52.9,46.6,30.00,SE,126,4.0,6.0,79,0.00,,OVC,0.00,520.00,VWS V14.00,2013-03-11 17:52:00,
2013-03-11 13:57:00,53.1,46.8,30.00,SE,130,4.0,6.0,79,0.00,,OVC,0.00,441.00,VWS V14.00,2013-03-11 17:57:00,
2013-03-11 14:02:00,53.6,46.9,30.00,ESE,102,0.0,6.0,78,0.00,,OVC,0.00,378.00,VWS V14.00,2013-03-11 18:02:00,
2013-03-11 14:08:00,53.7,47.0,30.00,ENE,69,1.0,6.0,78,0.00,,OVC,0.00,346.00,VWS V14.00,2013-03-11 18:08:00,
2013-03-11 14:13:00,53.8,47.1,30.00,North,360,0.0,6.0,78,0.00,,OVC,0.00,364.00,VWS V14.00,2013-03-11 18:13:00,
2013-03-11 14:18:00,53.9,46.9,29.99,NE,40,0.0,4.0,77,0.00,,OVC,0.00,318.00,VWS V14.00,2013-03-11 18:18:00,
2013-03-11 14:23:00,54.0,47.0,29.99,NE,42,2.0,4.0,77,0.00,,OVC,0.00,299.00,VWS V14.00,2013-03-11 18:23:00,
2013-03-11 14:28:00,54.0,47.0,29.99,ENE,78,0.0,0.0,77,0.00,,OVC,0.00,322.00,VWS V14.00,2013-03-11 18:28:00,
2013-03-11 14:33:00,54.1,47.1,29.98,ENE,69,0.0,5.0,77,0.00,,OVC,0.00,287.00,VWS V14.00,2013-03-11 18:33:00,
2013-03-11 14:38:00,54.1,47.1,29.98,ESE,111,0.0,6.0,77,0.00,,OVC,0.00,302.00,VWS V14.00,2013-03-11 18:38:00,
2013-03-11 14:43:00,54.4,47.3,29.98,SE,130,1.0,5.0,77,0.00,,OVC,0.00,355.00,VWS V14.00,2013-03-11 18:43:00,
2013-03-11 14:48:00,54.7,47.6,29.98,East,84,0.0,5.0,77,0.00,,OVC,0.00,327.00,VWS V14.00,2013-03-11 18:48:00,
2013-03-11 14:53:00,54.9,47.5,29.97,East,96,0.0,7.0,76,0.00,,OVC,0.00,336.00,VWS V14.00,2013-03-11 18:53:00,
2013-03-11 14:58:00,54.9,47.5,29.98,East,94,5.0,6.0,76,0.00,,OVC,0.00,343.00,VWS V14.00,2013-03-11 18:58:00,
2013-03-11 15:03:00,54.8,47.0,29.97,East,98,4.0,7.0,75,0.00,,OVC,0.00,338.00,VWS V14.00,2013-03-11 19:03:00,
2013-03-11 15:08:00,54.7,47.3,29.97,East,93,2.0,7.0,76,0.00,,OVC,0.00,318.00,VWS V14.00,2013-03-11 19:08:00,
2013-03-11 15:13:00,54.9,47.8,29.97,NE,46,0.0,1.0,77,0.00,,OVC,0.00,308.00,VWS V14.00,2013-03-11 19:13:00,
2013-03-11 15:18:00,55.1,47.7,29.98,SSE,160,1.0,5.0,76,0.00,,OVC,0.00,260.00,VWS V14.00,2013-03-11 19:18:00,
2013-03-11 15:23:00,55.2,47.8,29.98,East,96,0.0,5.0,76,0.00,,OVC,0.00,285.00,VWS V14.00,2013-03-11 19:23:00,
2013-03-11 15:28:00,55.4,48.0,29.97,South,170,0.0,0.0,76,0.00,,OVC,0.00,279.00,VWS V14.00,2013-03-11 19:28:00,
2013-03-11 15:33:00,55.7,48.3,29.97,East,97,5.0,10.0,76,0.00,,OVC,0.00,299.00,VWS V14.00,2013-03-11 19:33:00,
2013-03-11 15:38:00,55.8,48.0,29.97,SW,227,7.0,10.0,75,0.00,,OVC,0.00,292.00,VWS V14.00,2013-03-11 19:38:00,
2013-03-11 15:43:00,55.9,48.1,29.97,ENE,58,1.0,2.0,75,0.00,,OVC,0.00,355.00,VWS V14.00,2013-03-11 19:43:00,
2013-03-11 15:48:00,56.1,48.3,29.97,ESE,113,4.0,10.0,75,0.00,,OVC,0.00,401.00,VWS V14.00,2013-03-11 19:48:00,
2013-03-11 15:53:00,56.3,48.5,29.96,SSW,194,3.0,10.0,75,0.00,,OVC,0.00,352.00,VWS V14.00,2013-03-11 19:53:00,
2013-03-11 15:58:00,56.4,48.6,29.95,East,91,2.0,4.0,75,0.00,,OVC,0.00,332.00,VWS V14.00,2013-03-11 19:58:00,
2013-03-11 16:04:00,56.7,48.9,29.95,South,175,4.0,7.0,75,0.00,,OVC,0.00,302.00,VWS V14.00,2013-03-11 20:04:00,
2013-03-11 16:09:00,56.9,49.1,29.96,SW,225,3.0,10.0,75,0.00,,OVC,0.00,285.00,VWS V14.00,2013-03-11 20:09:00,
2013-03-11 16:14:00,57.0,49.5,29.94,South,184,0.0,7.0,76,0.00,,OVC,0.00,227.00,VWS V14.00,2013-03-11 20:14:00,
2013-03-11 16:19:00,57.0,49.5,29.94,SE,132,6.0,16.0,76,0.00,,OVC,0.00,193.00,VWS V14.00,2013-03-11 20:19:00,
2013-03-11 16:24:00,56.9,49.4,29.94,SSE,167,0.0,16.0,76,0.00,,OVC,0.00,181.00,VWS V14.00,2013-03-11 20:24:00,
2013-03-11 16:29:00,57.0,49.9,29.93,SE,146,5.0,8.0,77,0.00,,OVC,0.00,183.00,VWS V14.00,2013-03-11 20:29:00,
2013-03-11 16:34:00,57.1,50.0,29.94,ESE,117,6.0,8.0,77,0.00,,OVC,0.00,200.00,VWS V14.00,2013-03-11 20:34:00,
2013-03-11 16:39:00,57.2,50.1,29.94,West,277,1.0,11.0,77,0.00,,OVC,0.00,199.00,VWS V14.00,2013-03-11 20:39:00,
2013-03-11 16:44:00,57.2,49.7,29.94,SSE,163,4.0,7.0,76,0.00,,OVC,0.00,172.00,VWS V14.00,2013-03-11 20:44:00,
2013-03-11 16:49:00,57.2,49.7,29.93,SSE,161,4.0,12.0,76,0.00,,OVC,0.00,204.00,VWS V14.00,2013-03-11 20:49:00,
2013-03-11 16:54:00,57.1,49.6,29.93,SSW,209,0.0,12.0,76,0.00,,OVC,0.00,199.00,VWS V14.00,2013-03-11 20:54:00,
2013-03-11 16:59:00,57.1,49.6,29.93,South,175,8.0,12.0,76,0.00,,OVC,0.00,148.00,VWS V14.00,2013-03-11 20:59:00,
2013-03-11 17:04:00,57.1,49.6,29.93,ESE,123,1.0,12.0,76,0.00,,OVC,0.00,134.00,VWS V14.00,2013-03-11 21:04:00,
2013-03-11 17:09:00,57.1,49.6,29.93,SSE,148,0.0,13.0,76,0.00,,OVC,0.00,146.00,VWS V14.00,2013-03-11 21:09:00,
2013-03-11 17:14:00,57.1,49.6,29.92,SSE,151,2.0,8.0,76,0.00,,OVC,0.00,148.00,VWS V14.00,2013-03-11 21:14:00,
2013-03-11 17:19:00,57.1,49.6,29.92,South,175,4.0,8.0,76,0.00,,OVC,0.00,127.00,VWS V14.00,2013-03-11 21:19:00,
2013-03-11 17:24:00,57.0,49.5,29.91,SE,138,1.0,13.0,76,0.00,,OVC,0.00,104.00,VWS V14.00,2013-03-11 21:24:00,
2013-03-11 17:30:00,57.0,49.5,29.91,SSE,155,1.0,10.0,76,0.00,,OVC,0.00,104.00,VWS V14.00,2013-03-11 21:30:00,
2013-03-11 17:35:00,56.9,49.4,29.92,SSE,155,4.0,12.0,76,0.00,,OVC,0.00,102.00,VWS V14.00,2013-03-11 21:35:00,
2013-03-11 17:40:00,56.9,49.4,29.90,ESE,120,2.0,14.0,76,0.00,,OVC,0.00,100.00,VWS V14.00,2013-03-11 21:40:00,
2013-03-11 17:45:00,56.8,49.3,29.90,SSE,168,5.0,8.0,76,0.00,,OVC,0.00,91.00,VWS V14.00,2013-03-11 21:45:00,
2013-03-11 17:50:00,56.8,49.3,29.89,SSW,194,9.0,14.0,76,0.00,,OVC,0.00,81.00,VWS V14.00,2013-03-11 21:50:00,
2013-03-11 17:55:00,56.7,49.2,29.89,ESE,116,4.0,14.0,76,0.00,,OVC,0.00,77.00,VWS V14.00,2013-03-11 21:55:00,
2013-03-11 18:00:00,56.7,49.2,29.90,South,177,9.0,9.0,76,0.00,,OVC,0.00,74.00,VWS V14.00,2013-03-11 22:00:00,
2013-03-11 18:05:00,56.7,49.2,29.90,SE,130,2.0,11.0,76,0.00,,OVC,0.00,65.00,VWS V14.00,2013-03-11 22:05:00,
2013-03-11 18:10:00,56.7,49.2,29.91,SSW,211,2.0,11.0,76,0.00,,OVC,0.00,60.00,VWS V14.00,2013-03-11 22:10:00,
2013-03-11 18:15:00,56.7,49.2,29.90,SSE,167,4.0,7.0,76,0.00,,OVC,0.00,53.00,VWS V14.00,2013-03-11 22:15:00,
2013-03-11 18:20:00,56.6,49.1,29.90,SSE,165,0.0,14.0,76,0.00,,OVC,0.00,46.00,VWS V14.00,2013-03-11 22:20:00,
2013-03-11 18:25:00,56.6,49.1,29.91,SW,214,5.0,14.0,76,0.00,,OVC,0.00,39.00,VWS V14.00,2013-03-11 22:25:00,
2013-03-11 18:30:00,56.5,49.0,29.91,South,175,1.0,4.0,76,0.00,,OVC,0.00,32.00,VWS V14.00,2013-03-11 22:30:00,
2013-03-11 18:36:00,56.5,49.0,29.91,ESE,121,9.0,9.0,76,0.00,,OVC,0.00,25.00,VWS V14.00,2013-03-11 22:36:00,
2013-03-11 18:41:00,56.5,49.0,29.92,WSW,248,4.0,9.0,76,0.00,,OVC,0.00,19.00,VWS V14.00,2013-03-11 22:41:00,
2013-03-11 18:46:00,56.4,49.3,29.91,South,173,2.0,6.0,77,0.00,,OVC,0.00,16.00,VWS V14.00,2013-03-11 22:46:00,
2013-03-11 18:51:00,56.3,49.2,29.91,East,98,6.0,6.0,77,0.00,,OVC,0.00,11.00,VWS V14.00,2013-03-11 22:51:00,
2013-03-11 18:56:00,56.2,49.1,29.92,East,96,1.0,8.0,77,0.00,,OVC,0.00,7.00,VWS V14.00,2013-03-11 22:56:00,
2013-03-11 19:01:00,56.2,49.1,29.91,SSE,155,2.0,11.0,77,0.00,,OVC,0.00,0.00,VWS V14.00,2013-03-11 23:01:00,
2013-03-11 19:07:00,56.1,49.0,29.92,South,171,2.0,14.0,77,0.00,,OVC,0.00,0.00,VWS V14.00,2013-03-11 23:07:00,
2013-03-11 19:12:00,56.1,49.0,29.91,SW,221,2.0,14.0,77,0.00,,OVC,0.00,0.00,VWS V14.00,2013-03-11 23:12:00,
2013-03-11 19:17:00,56.0,48.9,29.91,ESE,123,2.0,10.0,77,0.00,,OVC,0.00,0.00,VWS V14.00,2013-03-11 23:17:00,
2013-03-11 19:22:00,55.9,49.2,29.92,ESE,113,0.0,10.0,78,0.00,,OVC,0.00,0.00,VWS V14.00,2013-03-11 23:22:00,
2013-03-11 19:27:00,55.8,49.0,29.91,SE,146,1.0,11.0,78,0.00,,OVC,0.00,0.00,VWS V14.00,2013-03-11 23:27:00,
2013-03-11 19:32:00,55.8,49.0,29.90,NE,51,0.0,9.0,78,0.00,,OVC,0.00,0.00,VWS V14.00,2013-03-11 23:32:00,
2013-03-11 19:37:00,55.7,49.0,29.89,East,98,4.0,11.0,78,0.00,,OVC,0.00,0.00,VWS V14.00,2013-03-11 23:37:00,
2013-03-11 19:42:00,55.5,48.8,29.89,SSE,147,4.0,11.0,78,0.00,,OVC,0.00,0.00,VWS V14.00,2013-03-11 23:42:00,
2013-03-11 19:47:00,55.3,48.9,29.89,East,96,0.0,8.0,79,0.00,,OVC,0.00,0.00,VWS V14.00,2013-03-11 23:47:00,
2013-03-11 19:52:00,55.0,48.3,29.89,East,90,0.0,8.0,78,0.00,,OVC,0.00,0.00,VWS V14.00,2013-03-11 23:52:00,
2013-03-11 19:57:00,54.4,48.0,29.89,SE,145,0.0,8.0,79,0.00,,OVC,0.00,0.00,VWS V14.00,2013-03-11 23:57:00,
2013-03-11 20:02:00,54.0,48.0,29.88,SE,127,0.0,6.0,80,0.00,,OVC,0.00,0.00,VWS V14.00,2013-03-12 00:02:00,
2013-03-11 20:07:00,53.8,47.8,29.89,ESE,107,1.0,6.0,80,0.00,,OVC,0.00,0.00,VWS V14.00,2013-03-12 00:07:00,
2013-03-11 20:12:00,53.6,47.9,29.88,ENE,70,0.0,6.0,81,0.00,,OVC,0.00,0.00,VWS V14.00,2013-03-12 00:12:00,
2013-03-11 20:18:00,53.6,48.2,29.88,East,93,1.0,7.0,82,0.00,,OVC,0.00,0.00,VWS V14.00,2013-03-12 00:18:00,
2013-03-11 20:23:00,53.6,48.2,29.89,SE,138,4.0,7.0,82,0.00,,OVC,0.00,0.00,VWS V14.00,2013-03-12 00:23:00,
2013-03-11 20:28:00,53.7,48.3,29.88,ESE,113,1.0,7.0,82,0.00,,OVC,0.00,0.00,VWS V14.00,2013-03-12 00:28:00,
2013-03-11 20:33:00,53.8,48.4,29.89,SW,224,3.0,9.0,82,0.00,,OVC,0.00,0.00,VWS V14.00,2013-03-12 00:33:00,
2013-03-11 20:38:00,53.8,48.4,29.89,South,179,5.0,9.0,82,0.00,,OVC,0.00,0.00,VWS V14.00,2013-03-12 00:38:00,
2013-03-11 20:43:00,53.8,48.4,29.90,South,181,0.0,0.0,82,0.00,,OVC,0.00,0.00,VWS V14.00,2013-03-12 00:43:00,
2013-03-11 20:48:00,53.8,48.4,29.89,ESE,117,2.0,11.0,82,0.00,,OVC,0.00,0.00,VWS V14.00,2013-03-12 00:48:00,
2013-03-11 20:53:00,53.8,48.4,29.90,South,181,1.0,11.0,82,0.00,,OVC,0.00,0.00,VWS V14.00,2013-03-12 00:53:00,
2013-03-11 20:58:00,53.8,48.4,29.89,NNE,25,2.0,4.0,82,0.00,,OVC,0.00,0.00,VWS V14.00,2013-03-12 00:58:00,
2013-03-11 21:03:00,53.7,48.3,29.89,SE,134,1.0,5.0,82,0.00,,OVC,0.00,0.00,VWS V14.00,2013-03-12 01:03:00,
2013-03-11 21:08:00,53.6,48.2,29.89,SE,134,1.0,5.0,82,0.00,,OVC,0.00,0.00,VWS V14.00,2013-03-12 01:08:00,
2013-03-11 21:13:00,53.7,48.3,29.89,East,92,4.0,4.0,82,0.00,,OVC,0.00,0.00,VWS V14.00,2013-03-12 01:13:00,
2013-03-11 21:18:00,53.7,48.3,29.89,ESE,112,0.0,8.0,82,0.00,,OVC,0.00,0.00,VWS V14.00,2013-03-12 01:18:00,
2013-03-11 21:23:00,53.7,48.3,29.89,SSE,159,0.0,8.0,82,0.00,,OVC,0.00,0.00,VWS V14.00,2013-03-12 01:23:00,
2013-03-11 21:28:00,53.7,48.3,29.89,SE,128,2.0,9.0,82,0.00,,OVC,0.00,0.00,VWS V14.00,2013-03-12 01:28:00,
2013-03-11 21:34:00,53.8,48.1,29.90,SSE,157,0.0,11.0,81,0.00,,OVC,0.00,0.00,VWS V14.00,2013-03-12 01:34:00,
2013-03-11 21:39:00,54.0,48.0,29.90,South,189,9.0,11.0,80,0.00,,OVC,0.00,0.00,VWS V14.00,2013-03-12 01:39:00,
2013-03-11 21:44:00,54.0,48.0,29.89,WSW,255,1.0,6.0,80,0.00,,OVC,0.00,0.00,VWS V14.00,2013-03-12 01:44:00,
2013-03-11 21:49:00,54.2,47.8,29.90,South,186,4.0,15.0,79,0.00,,OVC,0.00,0.00,VWS V14.00,2013-03-12 01:49:00,
2013-03-11 21:54:00,54.3,47.6,29.89,SSE,165,2.0,15.0,78,0.00,,OVC,0.00,0.00,VWS V14.00,2013-03-12 01:54:00,
2013-03-11 21:59:00,54.4,47.7,29.89,SSW,203,3.0,12.0,78,0.00,,OVC,0.00,0.00,VWS V14.00,2013-03-12 01:59:00,
2013-03-11 22:04:00,54.4,47.3,29.90,SE,145,5.0,12.0,77,0.00,,OVC,0.00,0.00,VWS V14.00,2013-03-12 02:04:00,
2013-03-11 22:09:00,54.4,47.3,29.89,SSW,205,6.0,19.0,77,0.00,,OVC,0.00,0.00,VWS V14.00,2013-03-12 02:09:00,
2013-03-11 22:14:00,54.4,47.3,29.90,SSE,156,5.0,9.0,77,0.00,,OVC,0.00,0.00,VWS V14.00,2013-03-12 02:14:00,
2013-03-11 22:19:00,54.3,47.2,29.90,South,176,4.0,16.0,77,0.00,,OVC,0.00,0.00,VWS V14.00,2013-03-12 02:19:00,
2013-03-11 22:24:00,54.2,47.2,29.90,SE,141,4.0,16.0,77,0.00,,OVC,0.00,0.00,VWS V14.00,2013-03-12 02:24:00,
2013-03-11 22:29:00,54.1,47.1,29.90,SW,223,9.0,12.0,77,0.00,,OVC,0.00,0.00,VWS V14.00,2013-03-12 02:29:00,
2013-03-11 22:34:00,54.0,47.0,29.89,West,265,2.0,14.0,77,0.00,,OVC,0.00,0.00,VWS V14.00,2013-03-12 02:34:00,
2013-03-11 22:39:00,53.8,47.1,29.90,South,186,5.0,14.0,78,0.00,,OVC,0.00,0.00,VWS V14.00,2013-03-12 02:39:00,
2013-03-11 22:44:00,53.7,47.0,29.90,SSE,164,4.0,9.0,78,0.00,,OVC,0.00,0.00,VWS V14.00,2013-03-12 02:44:00,
2013-03-11 22:49:00,53.6,46.9,29.90,SW,215,2.0,9.0,78,0.00,,OVC,0.00,0.00,VWS V14.00,2013-03-12 02:49:00,
2013-03-11 22:54:00,53.5,46.8,29.89,SSE,150,4.0,11.0,78,0.00,,OVC,0.00,0.00,VWS V14.00,2013-03-12 02:54:00,
2013-03-11 22:59:00,53.5,46.8,29.90,East,80,3.0,7.0,78,0.00,,OVC,0.00,0.00,VWS V14.00,2013-03-12 02:59:00,
2013-03-11 23:05:00,53.4,46.7,29.89,South,174,6.0,12.0,78,0.00,,OVC,0.00,0.00,VWS V14.00,2013-03-12 03:05:00,
2013-03-11 23:10:00,53.3,46.6,29.89,SW,223,1.0,12.0,78,0.00,,OVC,0.00,0.00,VWS V14.00,2013-03-12 03:10:00,
2013-03-11 23:15:00,53.2,46.5,29.88,ESE,117,2.0,6.0,78,0.00,,OVC,0.00,0.00,VWS V14.00,2013-03-12 03:15:00,
2013-03-11 23:20:00,53.0,46.7,29.88,ESE,114,1.0,6.0,79,0.00,,OVC,0.00,0.00,VWS V14.00,2013-03-12 03:20:00,
2013-03-11 23:25:00,52.8,46.5,29.88,SE,138,1.0,6.0,79,0.00,,OVC,0.00,0.00,VWS V14.00,2013-03-12 03:25:00,
2013-03-11 23:30:00,52.6,46.3,29.87,ESE,114,0.0,4.0,79,0.00,,OVC,0.00,0.00,VWS V14.00,2013-03-12 03:30:00,
2013-03-11 23:35:00,52.5,46.5,29.86,East,92,4.0,8.0,80,0.00,,OVC,0.00,0.00,VWS V14.00,2013-03-12 03:35:00,
2013-03-11 23:40:00,52.4,46.4,29.86,SE,127,7.0,11.0,80,0.00,,OVC,0.00,0.00,VWS V14.00,2013-03-12 03:40:00,
2013-03-11 23:45:00,52.4,46.4,29.86,SE,132,1.0,5.0,80,0.00,,OVC,0.00,0.00,VWS V14.00,2013-03-12 03:45:00,
2013-03-11 23:50:00,52.4,46.4,29.84,SSW,213,4.0,7.0,80,0.00,,OVC,0.00,0.00,VWS V14.00,2013-03-12 03:50:00,
2013-03-11 23:55:00,52.4,46.4,29.85,SW,234,3.0,9.0,80,0.00,,OVC,0.00,0.00,VWS V14.00,2013-03-12 03:55:00,